Muscatine, IA

9:27 PM CST on December 08, 2019 (GMT -0600)
Muscatine Municipal

Weather History for KMUT - November, 2019

Change the Weather History Date:

Tuesday, November 12, 2019

  Actual Average Record
Temperature  
Mean Temperature 10 °F -  
Max Temperature 17 °F 46 °F 70 °F (1964)
Min Temperature 3 °F 28 °F 6 °F (1986)
Degree Days  
Heating Degree Days 55    
Moisture  
Dew Point 1 °F    
Average Humidity 64    
Maximum Humidity 85    
Minimum Humidity 41    
Precipitation  
Precipitation 0.00 in - - ()
Sea Level Pressure  
Sea Level Pressure 30.53 in    
Wind  
Wind Speed 7 mph ()    
Max Wind Speed 15 mph    
Max Gust Speed 18 mph    
Visibility 10.0 miles    
Events      
Averages and records for this station are not official NWS values.
T = Trace of Precipitation, MM = Missing Value Source: Averaged Metar Reports

Daily Weather History Graph

Daily Weather History Graph

Search for Another Location

Airport or City:

Astronomy

Nov. 12, 2019 Rise Set
Actual Time 6:49 AM CST 4:47 PM CST
Civil Twilight 6:19 AM CST 5:17 PM CST
Nautical Twilight 5:46 AM CST 5:50 PM CST
Astronomical Twilight 5:13 AM CST 6:23 PM CST
Moon 5:15 PM CST (11/12) 6:40 AM CST (11/12)
Length of Visible Light 10h 57m
Length of Day
9h 58m
Full, 100% of the Moon is Illuminated
Nov 12
Full
Nov 19
Last Quarter
Nov 26
New
Dec 4
First Quarter
Dec 11
Full

Hourly Weather History & Observations

Time (CST) Temp. Windchill Dew Point Humidity Pressure Visibility Wind Dir Wind Speed Gust Speed Precip Events Conditions
12:15 AM 10.4 °F -1.5 °F 3.2 °F 73% 30.59 in 10.0 mi NW 8.1 mph 16.1 mph N/A   Clear
12:35 AM 10.4 °F -3.3 °F 3.2 °F 73% 30.59 in 10.0 mi NW 10.4 mph - N/A   Clear
12:55 AM 10.4 °F -2.4 °F 3.2 °F 73% 30.59 in 10.0 mi NW 9.2 mph - N/A   Clear
1:15 AM 8.6 °F -4.7 °F 3.2 °F 79% 30.59 in 10.0 mi NW 9.2 mph - N/A   Clear
1:35 AM 8.6 °F -3.7 °F 3.2 °F 79% 30.59 in 10.0 mi NW 8.1 mph - N/A   Clear
1:55 AM 8.6 °F -2.6 °F 1.4 °F 73% 30.60 in 10.0 mi WNW 6.9 mph - N/A   Clear
2:15 AM 8.6 °F -3.7 °F 1.4 °F 73% 30.60 in 10.0 mi NW 8.1 mph - N/A   Clear
2:35 AM 6.8 °F -4.8 °F 1.4 °F 79% 30.60 in 10.0 mi NW 6.9 mph - N/A   Clear
2:55 AM 6.8 °F -5.9 °F 1.4 °F 79% 30.60 in 10.0 mi NW 8.1 mph - N/A   Clear
3:15 AM 6.8 °F -5.9 °F 1.4 °F 79% 30.59 in 10.0 mi NW 8.1 mph - N/A   Clear
3:35 AM 6.8 °F -4.8 °F -0.4 °F 72% 30.60 in 10.0 mi WNW 6.9 mph - N/A   Clear
3:55 AM 6.8 °F -5.9 °F -0.4 °F 72% 30.59 in 10.0 mi NW 8.1 mph - N/A   Clear
4:15 AM 5.0 °F -8.1 °F -0.4 °F 78% 30.60 in 10.0 mi NW 8.1 mph - N/A   Clear
4:35 AM 5.0 °F -6.9 °F -0.4 °F 78% 30.60 in 10.0 mi NW 6.9 mph - N/A   Clear
4:55 AM 5.0 °F -5.6 °F -0.4 °F 78% 30.60 in 10.0 mi WNW 5.8 mph - N/A   Clear
5:15 AM 3.2 °F -9.1 °F -0.4 °F 85% 30.60 in 10.0 mi WNW 6.9 mph - N/A   Clear
5:35 AM 3.2 °F -9.1 °F -2.2 °F 78% 30.61 in 10.0 mi WNW 6.9 mph - N/A   Clear
5:55 AM 3.2 °F -9.1 °F -2.2 °F 78% 30.61 in 10.0 mi WNW 6.9 mph - N/A   Clear
6:15 AM 3.2 °F -7.8 °F -2.2 °F 78% 30.61 in 10.0 mi WNW 5.8 mph - N/A   Clear
6:35 AM 3.2 °F -7.8 °F -2.2 °F 78% 30.62 in 10.0 mi NW 5.8 mph - N/A   Clear
6:55 AM 3.2 °F -6.2 °F -2.2 °F 78% 30.62 in 10.0 mi WNW 4.6 mph - N/A   Clear
7:15 AM 3.2 °F - -2.2 °F 78% 30.62 in 10.0 mi Calm Calm - N/A   Clear
7:35 AM 3.2 °F - -0.4 °F 85% 30.63 in 10.0 mi Calm Calm - N/A   Clear
8:15 AM 6.8 °F - -0.4 °F 72% 30.63 in 10.0 mi Calm Calm - N/A   Clear
8:35 AM 6.8 °F -3.5 °F 1.4 °F 79% 30.63 in 10.0 mi NW 5.8 mph - N/A   Clear
8:55 AM 8.6 °F -2.6 °F 1.4 °F 73% 30.64 in 10.0 mi NW 6.9 mph - N/A   Clear
9:15 AM 10.4 °F -1.5 °F 1.4 °F 67% 30.63 in 10.0 mi NW 8.1 mph - N/A   Clear
9:35 AM 10.4 °F -0.4 °F 1.4 °F 67% 30.63 in 10.0 mi NNW 6.9 mph - N/A   Clear
9:55 AM 10.4 °F -0.4 °F 1.4 °F 67% 30.63 in 10.0 mi WNW 6.9 mph - N/A   Clear
10:15 AM 12.2 °F 1.7 °F 1.4 °F 62% 30.63 in 10.0 mi NW 6.9 mph - N/A   Clear
10:35 AM 12.2 °F 2.9 °F -0.4 °F 57% 30.63 in 10.0 mi Variable 5.8 mph - N/A   Clear
10:55 AM 12.2 °F 2.9 °F -0.4 °F 57% 30.62 in 10.0 mi NW 5.8 mph - N/A   Clear
11:15 AM 14.0 °F 6.5 °F -0.4 °F 53% 30.62 in 10.0 mi NNW 4.6 mph 11.5 mph N/A   Clear
11:35 AM 14.0 °F 6.5 °F -0.4 °F 53% 30.61 in 10.0 mi North 4.6 mph - N/A   Clear
11:55 AM 14.0 °F 5.1 °F -0.4 °F 53% 30.60 in 10.0 mi WNW 5.8 mph - N/A   Clear
12:15 PM 15.8 °F 10.2 °F -2.2 °F 45% 30.59 in 10.0 mi NW 3.5 mph - N/A   Clear
12:35 PM 15.8 °F 6.1 °F -2.2 °F 45% 30.57 in 10.0 mi WNW 6.9 mph - N/A   Clear
1:15 PM 15.8 °F 10.2 °F -4.0 °F 41% 30.54 in 10.0 mi Variable 3.5 mph - N/A   Clear
1:35 PM 17.6 °F 9.3 °F -2.2 °F 42% 30.53 in 10.0 mi West 5.8 mph - N/A   Clear
1:55 PM 15.8 °F 7.2 °F -2.2 °F 45% 30.53 in 10.0 mi SW 5.8 mph - N/A   Clear
2:15 PM 17.6 °F 9.3 °F -0.4 °F 45% 30.53 in 10.0 mi Variable 5.8 mph - N/A   Clear
2:35 PM 17.6 °F 7.3 °F -0.4 °F 45% 30.52 in 10.0 mi WSW 8.1 mph - N/A   Clear
2:55 PM 17.6 °F 8.2 °F -0.4 °F 45% 30.51 in 10.0 mi WSW 6.9 mph - N/A   Clear
3:15 PM 17.6 °F 9.3 °F -0.4 °F 45% 30.51 in 10.0 mi SW 5.8 mph - N/A   Clear
3:35 PM 17.6 °F 8.2 °F -0.4 °F 45% 30.50 in 10.0 mi SSW 6.9 mph - N/A   Clear
3:55 PM 17.6 °F 9.3 °F -2.2 °F 42% 30.49 in 10.0 mi SW 5.8 mph - N/A   Clear
4:15 PM 17.6 °F 12.3 °F -0.4 °F 45% 30.49 in 10.0 mi South 3.5 mph - N/A   Clear
4:35 PM 15.8 °F 7.2 °F -0.4 °F 49% 30.48 in 10.0 mi South 5.8 mph - N/A   Clear
4:55 PM 15.8 °F 10.2 °F 1.4 °F 53% 30.47 in 10.0 mi South 3.5 mph - N/A   Clear
5:15 PM 14.0 °F 5.1 °F 1.4 °F 57% 30.46 in 10.0 mi South 5.8 mph - N/A   Clear
5:35 PM 14.0 °F 5.1 °F 1.4 °F 57% 30.45 in 10.0 mi SSE 5.8 mph - N/A   Clear
5:55 PM 14.0 °F 6.5 °F 3.2 °F 62% 30.44 in 10.0 mi SSE 4.6 mph - N/A   Clear
6:15 PM 14.0 °F 5.1 °F 3.2 °F 62% 30.43 in 10.0 mi SSE 5.8 mph - N/A   Clear
6:35 PM 14.0 °F 3.9 °F 3.2 °F 62% 30.42 in 10.0 mi South 6.9 mph - N/A   Clear
6:55 PM 14.0 °F 6.5 °F 3.2 °F 62% 30.42 in 10.0 mi South 4.6 mph - N/A   Clear
7:15 PM 14.0 °F 3.9 °F 5.0 °F 67% 30.41 in 10.0 mi South 6.9 mph - N/A   Clear
7:35 PM 14.0 °F 3.9 °F 3.2 °F 62% 30.41 in 10.0 mi South 6.9 mph - N/A   Clear
7:55 PM 15.8 °F 3.4 °F 3.2 °F 58% 30.39 in 10.0 mi South 10.4 mph - N/A   Clear
8:15 PM 15.8 °F 2.7 °F 3.2 °F 58% 30.37 in 10.0 mi South 11.5 mph - N/A   Clear
8:35 PM 15.8 °F 2.1 °F 5.0 °F 62% 30.36 in 10.0 mi South 12.7 mph - N/A   Clear
9:15 PM 15.8 °F 2.1 °F 5.0 °F 62% 30.34 in 10.0 mi South 12.7 mph - N/A   Clear
9:35 PM 15.8 °F 0.9 °F 5.0 °F 62% 30.33 in 10.0 mi South 15.0 mph - N/A   Clear
9:55 PM 15.8 °F 2.7 °F 5.0 °F 62% 30.33 in 10.0 mi South 11.5 mph 17.3 mph N/A   Clear
10:15 PM 15.8 °F 2.1 °F 5.0 °F 62% 30.33 in 10.0 mi South 12.7 mph - N/A   Clear
10:35 PM 17.6 °F 3.2 °F 5.0 °F 58% 30.32 in 10.0 mi South 15.0 mph - N/A   Clear
10:55 PM 15.8 °F 2.1 °F 5.0 °F 62% 30.32 in 10.0 mi South 12.7 mph 18.4 mph N/A   Clear
11:15 PM 17.6 °F 4.3 °F 6.8 °F 63% 30.31 in 10.0 mi South 12.7 mph 18.4 mph N/A   Clear
11:55 PM 17.6 °F 5.7 °F 6.8 °F 63% 30.32 in 10.0 mi South 10.4 mph - N/A   Clear